Regional Weather Roundup
Issued by NWS

Home | Current Version | Previous Version | Graphics & Text | Print | Product List | Glossary Off
Versions: 1 2 3 4 5 6 7 8 9 10 11 12 13 14 15 16 17 18 19 20 21 22 23 24 25 26 27 28 29 30 31 32 33 34 35 36 37 38 39 40 41 42 43 44 45 46 47 48 49 50

000
ASUS43 KMKX 170710
RWRWI

WISCONSIN REGIONAL WEATHER ROUNDUP
NATIONAL WEATHER SERVICE MILWAUKEE/SULLIVAN WI
100 AM CST SUN DEC 17 2017

NOTE: "FAIR" INDICATES FEW OR NO CLOUDS BELOW 12,000 FEET WITH NO
SIGNIFICANT WEATHER AND/OR OBSTRUCTIONS TO VISIBILITY.

WIZ001-002-006>008-014>016-023>028-170800-
NORTHWEST WISCONSIN

CITY           SKY/WX    TMP DP  RH WIND       PRES   REMARKS
SUPERIOR ARPT  CLOUDY    21  16  81 CALM      30.15S
ASHLAND        CLOUDY    21  16  81 CALM      30.15F
HAYWARD        CLOUDY    22  18  85 SE3       30.11F
SIREN          PTCLDY    16  14  90 CALM      30.10F
CUMBERLAND     CLOUDY    21  18  86 CALM      30.08F
RICE LAKE      CLOUDY    23  21  92 CALM      30.12S
CHETEK         CLOUDY    23  20  90 E3        30.10F
LADYSMITH      CLOUDY    24  20  85 NE5       30.11F WCI  18
EAU CLAIRE     CLOUDY    24  22  91 E7        30.08F WCI  16
MENOMONIE      CLOUDY    25  22  91 NE3       30.09F
NEW RICHMOND   CLOUDY    17  13  87 CALM      30.10R
OSCEOLA        CLOUDY    20  16  85 CALM      30.13S
$$

WIZ003>005-009-010-017-018-170800-
NORTH CENTRAL WISCONSIN

CITY           SKY/WX    TMP DP  RH WIND       PRES   REMARKS
MANITOWISH WTR CLOUDY    19  19 100 SE3       30.11F FOG
ARBOR VITAE    CLOUDY    22  20  93 CALM      30.12S FOG
WOODRUFF       CLOUDY    22  20  93 CALM      30.12S FOG
RHINELANDER    CLOUDY    20  20 100 E5        30.12F FOG     WCI  13
EAGLE RIVER    CLOUDY    19  19 100 SE3       30.12F
LAND O LAKES   CLOUDY    19  19  97 SE5       30.14S FOG     WCI  13
PHILLIPS       CLOUDY    20  18  94 E5        30.10F WCI  13
TOMAHAWK       CLOUDY    21  19  95 E3        30.11F
MEDFORD        CLOUDY    21  19  91 E8        30.07F WCI  12
MERRILL        CLOUDY    22  20  94 E5        30.11F WCI  15
$$

WIZ029-030-035-036-043>047-170800-
CENTRAL WISCONSIN

CITY           SKY/WX    TMP DP  RH WIND       PRES   REMARKS
WAUSAU         CLOUDY    22  19  89 E8        30.09F WCI  12
MOSINEE        CLOUDY    23  21  93 E9        30.11S WCI  13
MARSHFIELD     CLOUDY    23  20  88 E7        30.08S WCI  15
STEVENS POINT  CLOUDY    21  19  94 E7        30.12S WCI  12
WAUPACA        CLOUDY    26  22  83 N3        30.13S
WAUTOMA        CLOUDY    25  21  85 NE8       30.12S WCI  16
WISC RAPIDS    CLOUDY    24  19  81 E8        30.11F WCI  15
CAMP DOUGLAS   CLOUDY   N/A N/A N/A E3        30.10S
$$

WIZ011>013-019>022-031-037>040-048>050-170800-
NORTHEAST WISCONSIN

CITY           SKY/WX    TMP DP  RH WIND       PRES   REMARKS
ANTIGO         CLOUDY    20  19  97 E7        30.10F WCI  11
SHAWANO        CLOUDY    23  20  88 NE5       30.16F WCI  17
OCONTO         CLOUDY    23  20  89 N5        30.17F WCI  16
STURGEON BAY   CLOUDY    27  23  85 MISG      30.17F
GREEN BAY      CLOUDY    27  22  81 N10       30.15F WCI  17
MANITOWOC      CLOUDY    29  25  85 NE5       30.14F WCI  24
APPLETON       CLOUDY    27  21  80 NE7       30.11R WCI  19
CLINTONVILLE   NOT AVBL
OSHKOSH        CLOUDY    27  24  89 NE7       30.10F WCI  19
$$

WIZ032>034-041-042-053>061-170800-
SOUTHWEST WISCONSIN

CITY           SKY/WX    TMP DP  RH WIND       PRES   REMARKS
LA CROSSE      CLOUDY    29  25  85 E3        30.10S
SPARTA         CLOUDY    26  24  90 E6        30.10S WCI  20
VIROQUA        CLOUDY    26  26 100 CALM      30.06S
BOSCOBEL       CLOUDY    32  28  85 VRB3      30.09R
PRAIRIE DU CHI CLOUDY    32  28  84 E3        30.08R
PLATTEVILLE    CLOUDY    32  32 100 E12       30.05S WCI  23
$$

WIZ056-057-062-063-064-067-068-170800-
SOUTH CENTRAL WISCONSIN

CITY           SKY/WX    TMP DP  RH WIND       PRES   REMARKS
REEDSBURG      CLOUDY    28  24  87 E7        30.08F WCI  20
BARABOO/DELLS  CLOUDY    28  24  84 E7        30.08F WCI  21
LONE ROCK      CLOUDY    31  28  89 E8        30.09S WCI  23
MINERAL POINT  CLOUDY    32  32 100 E8        30.06R FOG     WCI  25
MADISON        CLOUDY    31  27  85 NE7       30.08F WCI  24
MIDDLETON      CLOUDY    32  30  91 E6        30.08S WCI  26
WATERTOWN      CLOUDY    32  32 100 E7        30.08S WCI  26
MONROE         CLOUDY    32  32 100 NE8       30.05S FOG     WCI  25
JANESVILLE     CLOUDY    36  34  93 E8        30.06R WCI  29
$$

WIZ051-052-058>065-066-070>072-170800-
SOUTHEAST WISCONSIN

CITY           SKY/WX    TMP DP  RH WIND       PRES   REMARKS
MILWAUKEE      CLOUDY    35  32  88 E9        30.09F WCI  28
WAUKESHA       CLOUDY    32  30  93 E8        30.09S WCI  25
MILWAUKEE/TIMM CLOUDY    32  28  86 E5        30.10S WCI  27
RACINE         CLOUDY    35  32  88 NE9       30.09F WCI  28
BURLINGTON     CLOUDY    50  50 100 E5        30.07F
KENOSHA        CLOUDY    35  31  85 NE12      30.07F WCI  27
FOND DU LAC    CLOUDY    29  24  82 NE7       30.10F WCI  22
SHEBOYGAN      CLOUDY    31  29  92 E6        30.12F WCI  25
WEST BEND      CLOUDY    32  30  93 E7        30.09F WCI  26
JUNEAU         CLOUDY    29  27  92 NE3       30.09F
$$

LSZ147-162-170800-
LAKE SUPERIOR

STATION/POSITION TIME  TEMP    WIND        PRES    WAVE
                       AIR SEA DIR/SP/G            HT/PER
                 (UTC) (F)     (DEG/KT/KT) (MB)    (FT/S)
DEVILS ISLAND    0700   25     200/  9/ 13 1021.7F
SAXON HARBOR     0640   24                 1020.3F
$$

LMZ867-665-643>646-170800-
LAKE MICHIGAN

STATION/POSITION TIME  TEMP    WIND        PRES    WAVE
                       AIR SEA DIR/SP/G            HT/PER
                 (UTC) (F)     (DEG/KT/KT) (MB)    (FT/S)
NORTHPORT PIER   0640   28      80/ 11/ 13 1022.4F
KEWAUNEE LAKESHO 0648   30      70/  6/  8 1020.4F
SHEBOYGAN LAKESH 0700   32      80/ 11/ 12 1020.6F
PORT WASHINGTON  0630   34      90/ 10/ 13 1020.7F
MILWAUKEE LAKESH 0550   35      80/ 12/ 13   N/A
KENOSHA   LAKESH 0700   36      60/ 14/ 15 1018.6
$$

TC  - TEMPERATURE IN CELSIUS
VSB - VISIBILITY IN STATUTE MILES
WCI - WIND CHILL INDEX
HX  - HEAT INDEX





USA.gov is the U.S. government's official web portal to all federal, state and local government web resources and services.